2024-149DJ (60572 NORAD) Tracking and Keplerian Element Data

This shows tracking and keplerian element data for the satellite.

Feedback or suggestion? Click here.




ElementValue
Catalog60572
Name2024-149DJ
Epoch Orbit849
Epoch Day286.76716436
Epoch Year2024
RAAN1.4485
Inclination97.7441
Eccentricity0.0001163
Argument of Perigee257.9116
Mean Anonmoly102.1975
Mean Motion14.96482931
Decay Rate0.00045381
L11 60572U 24149DJ 24286.76716436 .00045381 00000+0 39777-2 0 9997
L22 60572 97.7441 1.4485 0001163 257.9116 102.1975 14.96482931 8491



Live tracking and technical data element details for 2024-149DJ (NORAD 60572). 2024-149DJ can be tracked NOW for your location showing map with azimuth and elevation plus other details from your city location.







IsCatalogInMostPopularTable: catalog: 60572, numindb: 4
Update: records affected: 1



GetName: 60572 2024-149DJ

Hit Count: updated at: Tue, 03 Dec 2024 03:23:01 GMT